Location: Alt?nova Orta
(36.9295°N, 30.7847°E)
Time: 15:52:02
(UTC+00:00)

Cosmos 1633 Rocket - Pass Details

Date: 17 February 2020
Orbit: 608 x 622 km, 82.5° (Epoch: 30 March)

Event Time Altitude Azimuth Distance (km) Brightness Sun altitude
Rises 04:09:08 0° 356° (N) 2,883 6.4 -7.6°
Reaches altitude 10° 04:11:23 10° 360° (N) 1,976 5.6 -7.2°
Maximum altitude 04:15:43 63° 82° (E) 687 3.6 -6.3°
Drops below altitude 10° 04:20:03 10° 163° (SSE) 1,970 6.0 -5.5°
Sets 04:22:17 0° 167° (SSE) 2,873 6.8 -5.1°
